Flag for Chile Weather past 2 weeks in Concepción, Chile

Now
48 °F

Clear.


Feels Like: 47 °F
Forecast: 48 / 70 °F
Wind: 3 mph from Southeast

Location: Concepcion Airport

Current Time: Sep 5, 2015 at 3:14:01 AM

Latest Report: Sep 5, 2015 at 2:00 AM


Visibility: 10 mi

Pressure: 29.95 "Hg

Humidity: 82%

Dew point: 43 °F

Location of ConcepciónLocation

Historic Weather in Concepción — Graph

°F

Concepción temperature yesterday

Maximum temperature yesterday: 70 °F (at 2:00 PM)
Minimum temperature yesterday: 39 °F (at 3:00 AM)
Average temperature yesterday: 52 °F

Past Weeks' High & Low Weather Summary

 TemperatureHumidityPressure
High70 °F (Sep 4, 2:00 PM)100% (Aug 21, 7:00 AM)30.24 "Hg (Aug 21, 7:00 AM)
Low39 °F (Sep 4, 3:00 AM)35% (Sep 4, 2:00 PM)29.71 "Hg (Aug 25, 7:00 AM)
Average54 °F86%30.03 "Hg
* Reported Aug 21 2:00 AM — Sep 5 2:00 AM, Concepción, Weather by CustomWeather, © 2015

Note: Actual official high and low records may vary slightly from our data, if they occured in-between our weather recording intervals... More about our weather records

Advertising

Concepción weather history for previous 24 hours

 ConditionsComfort  
Time TempWeatherWind HumidityBarometerVisibility
2:00 AM
Sat, Sep 5
48 °FClear.3 mph82%29.95 "Hg10 mi
1:00 AM46 °FClear.2 mph93%29.98 "Hg10 mi
12:00 AM52 °FClear.No wind88%29.98 "Hg10 mi
11:00 PM
Fri, Sep 4
52 °FClear.3 mph82%29.98 "Hg10 mi
10:00 PM55 °FClear.3 mph77%29.95 "Hg10 mi
9:00 PM57 °FClear.6 mph72%29.95 "Hg10 mi
8:00 PM59 °FClear.6 mph68%29.95 "Hg10 mi
7:00 PM64 °FClear.6 mph52%30.24 "Hg10 mi
6:00 PM66 °FSunny.7 mph46%29.95 "Hg10 mi
4:00 PM66 °FSunny.9 mph46%29.95 "Hg10 mi
2:00 PM70 °FSunny.9 mph35%29.98 "Hg10 mi
1:00 PM64 °FSunny.10 mph40%30.01 "Hg10 mi
12:00 PM59 °FSunny.10 mph45%30.01 "Hg10 mi
11:00 AM54 °FSunny.6 mph54%30.04 "Hg10 mi
10:00 AM50 °FSunny.6 mph62%30.04 "Hg10 mi
9:00 AM45 °FSunny.8 mph76%30.04 "Hg10 mi
8:00 AM45 °FSunny.8 mph71%30.04 "Hg10 mi
7:00 AM45 °FClear.6 mph71%30.01 "Hg10 mi
6:00 AM43 °FClear.6 mph81%30.04 "Hg10 mi
5:00 AM41 °FClear.5 mph87%30.04 "Hg10 mi
4:00 AM39 °FClear.2 mph87%30.07 "Hg10 mi
3:00 AM39 °FClear.2 mph87%30.07 "Hg10 mi
Weather by CustomWeather, © 2015

See weather overviewHow to use our weather pages